Regional Weather Roundup
Issued by NWS

Home | Current Version | Previous Version | Graphics & Text | Print | Product List | Glossary On
Versions: 1 2 3 4 5 6 7 8 9 10 11 12 13 14 15 16 17 18 19 20 21 22 23 24 25 26 27 28 29 30 31 32 33 34 35 36 37 38 39 40 41 42 43 44 45 46 47 48 49 50
000
ASUS43 KBIS 231310
RWRND

NORTH DAKOTA REGIONAL WEATHER ROUNDUP
NATIONAL WEATHER SERVICE BISMARCK ND
800 AM CDT THU OCT 23 2014

NOTE: "FAIR" INDICATES FEW OR NO CLOUDS BELOW 12,000 FEET WITH NO
SIGNIFICANT WEATHER AND/OR OBSTRUCTIONS TO VISIBILITY.


NDZ001>003-009>011-017-231400-
NORTHWEST NORTH DAKOTA

CITY           SKY/WX    TMP DP  RH WIND       PRES   REMARKS
WILLISTON      CLEAR     35  31  85 S3        29.84F
MINOT          CLEAR     42  33  70 SW10      29.82F
MINOT AFB      CLEAR     40  33  78 SW7       29.82S
$$

NDZ018>021-031>035-040>046-231400-
SOUTHWEST NORTH DAKOTA

CITY           SKY/WX    TMP DP  RH WIND       PRES   REMARKS
BISMARCK       CLEAR     32  29  88 E5        29.91F
DICKINSON      CLEAR     36  28  73 W8        29.87S
GARRISON         N/A     39  35  86 CALM      29.86S
HETTINGER ARPT CLEAR     31  24  75 CALM      29.93S
$$

NDZ004>008-012>016-024-026-027-054-231400-
NORTHEAST NORTH DAKOTA

CITY           SKY/WX    TMP DP  RH WIND       PRES   REMARKS
GRAND FORKS    PTCLDY    41  38  89 SW3       29.84S
GRND FRKS AFB  CLEAR     45  42  90 W9        29.85R
DEVILS LAKE    CLEAR     45  34  65 W8        29.84S
$$

NDZ022-023-025-028>030-036>039-047>053-231400-
SOUTHEAST NORTH DAKOTA

CITY           SKY/WX    TMP DP  RH WIND       PRES   REMARKS
FARGO          CLEAR     43  39  86 S8        29.91S
JAMESTOWN      PTCLDY    41  35  79 SW6       29.90S
$$




USA.gov is the U.S. government's official web portal to all federal, state and local government web resources and services.